Time,TemperatureF,DewpointF,PressureIn,WindDirection,WindDirectionDegrees,WindSpeedMPH,WindSpeedGustMPH,Humidity,HourlyPrecipIn,Conditions,Clouds,dailyrainin,SoftwareType,DateUTC
2014-12-20 00:03:00,49.3,47.6,30.20,NNE,26,3.0,5.0,94,0.00,,,0.00,Wunderground v.1.15,2014-12-20 08:03:00,
2014-12-20 00:08:00,49.5,47.8,30.19,NE,46,4.0,5.0,94,0.00,,,0.00,Wunderground v.1.15,2014-12-20 08:08:00,
2014-12-20 00:19:00,47.9,46.0,30.19,ENE,58,2.0,3.0,93,0.00,,,0.00,Wunderground v.1.15,2014-12-20 08:19:00,
2014-12-20 00:28:00,48.9,47.2,30.19,ENE,61,5.0,8.0,94,0.00,,,0.00,Wunderground v.1.15,2014-12-20 08:28:00,
2014-12-20 00:38:00,49.0,47.1,30.18,NE,53,5.0,11.0,93,0.00,,,0.00,Wunderground v.1.15,2014-12-20 08:38:00,
2014-12-20 00:48:00,48.7,46.5,30.17,NE,35,3.0,11.0,92,0.00,,,0.00,Wunderground v.1.15,2014-12-20 08:48:00,
2014-12-20 00:53:00,48.6,46.7,30.17,ENE,58,3.0,7.0,93,0.00,,,0.00,Wunderground v.1.15,2014-12-20 08:53:00,
2014-12-20 01:04:00,48.7,46.8,30.17,NE,44,4.0,4.0,93,0.00,,,0.00,Wunderground v.1.15,2014-12-20 09:04:00,
2014-12-20 01:13:00,48.1,45.9,30.18,ESE,117,4.0,4.0,92,0.00,,,0.00,Wunderground v.1.15,2014-12-20 09:13:00,
2014-12-20 01:19:00,47.5,45.3,30.17,ESE,117,2.0,4.0,92,0.00,,,0.00,Wunderground v.1.15,2014-12-20 09:19:00,
2014-12-20 01:28:00,47.1,45.5,30.18,NE,43,2.0,4.0,94,0.00,,,0.00,Wunderground v.1.15,2014-12-20 09:28:00,
2014-12-20 01:34:00,47.3,45.7,30.18,NE,49,2.0,2.0,94,0.00,,,0.00,Wunderground v.1.15,2014-12-20 09:34:00,
2014-12-20 01:43:00,47.2,45.6,30.19,ESE,120,1.0,3.0,94,0.00,,,0.00,Wunderground v.1.15,2014-12-20 09:43:00,
2014-12-20 01:48:00,46.6,45.0,30.18,East,86,2.0,3.0,94,0.00,,,0.00,Wunderground v.1.15,2014-12-20 09:48:00,
2014-12-20 01:58:00,46.5,45.1,30.18,NE,36,1.0,3.0,95,0.00,,,0.00,Wunderground v.1.15,2014-12-20 09:58:00,
2014-12-20 02:03:00,47.1,45.7,30.18,NE,36,2.0,2.0,95,0.00,,,0.00,Wunderground v.1.15,2014-12-20 10:03:00,
2014-12-20 02:13:00,47.5,46.1,30.18,East,79,3.0,3.0,95,0.00,,,0.00,Wunderground v.1.15,2014-12-20 10:13:00,
2014-12-20 02:18:00,46.6,44.7,30.18,East,101,2.0,5.0,93,0.00,,,0.00,Wunderground v.1.15,2014-12-20 10:18:00,
2014-12-20 02:28:00,46.0,44.4,30.18,NE,43,2.0,5.0,94,0.00,,,0.00,Wunderground v.1.15,2014-12-20 10:28:00,
2014-12-20 02:33:00,46.5,45.1,30.18,NNE,18,3.0,3.0,95,0.00,,,0.00,Wunderground v.1.15,2014-12-20 10:33:00,
2014-12-20 02:44:00,46.9,45.5,30.17,NE,41,3.0,6.0,95,0.00,,,0.00,Wunderground v.1.15,2014-12-20 10:44:00,
2014-12-20 02:53:00,47.0,45.6,30.17,NE,49,4.0,7.0,95,0.00,,,0.00,Wunderground v.1.15,2014-12-20 10:53:00,
2014-12-20 02:59:00,47.2,45.8,30.17,NNE,13,5.0,8.0,95,0.00,,,0.00,Wunderground v.1.15,2014-12-20 10:59:00,
2014-12-20 03:08:00,47.3,45.7,30.17,NE,43,3.0,7.0,94,0.00,,,0.00,Wunderground v.1.15,2014-12-20 11:08:00,
2014-12-20 03:13:00,47.0,45.4,30.17,NE,34,3.0,7.0,94,0.00,,,0.00,Wunderground v.1.15,2014-12-20 11:13:00,
2014-12-20 03:23:00,46.7,45.1,30.16,NE,49,4.0,5.0,94,0.00,,,0.00,Wunderground v.1.15,2014-12-20 11:23:00,
2014-12-20 03:28:00,46.7,45.1,30.16,NE,43,4.0,6.0,94,0.00,,,0.00,Wunderground v.1.15,2014-12-20 11:28:00,
2014-12-20 03:38:00,46.7,45.1,30.16,NE,50,5.0,7.0,94,0.00,,,0.00,Wunderground v.1.15,2014-12-20 11:38:00,
2014-12-20 03:43:00,46.6,45.0,30.16,NE,52,4.0,4.0,94,0.00,,,0.00,Wunderground v.1.15,2014-12-20 11:43:00,
2014-12-20 03:53:00,46.5,44.9,30.16,NE,55,4.0,6.0,94,0.00,,,0.00,Wunderground v.1.15,2014-12-20 11:53:00,
2014-12-20 03:58:00,46.6,44.7,30.15,NNE,33,4.0,6.0,93,0.00,,,0.00,Wunderground v.1.15,2014-12-20 11:58:00,
2014-12-20 04:08:00,-999.9,-99.9,30.16,North,32767,-999.0,6.0,255,-99.99,,,0.00,Wunderground v.1.15,2014-12-20 12:08:00,
2014-12-20 04:18:00,-999.9,-99.9,30.16,North,32767,-999.0,0.0,255,-99.99,,,0.00,Wunderground v.1.15,2014-12-20 12:18:00,
2014-12-20 04:23:00,-999.9,-99.9,30.16,North,32767,-999.0,0.0,255,-99.99,,,0.00,Wunderground v.1.15,2014-12-20 12:23:00,
2014-12-20 04:33:00,-999.9,-99.9,30.16,North,32767,-999.0,0.0,255,-99.99,,,0.00,Wunderground v.1.15,2014-12-20 12:33:00,
2014-12-20 04:43:00,-999.9,-99.9,30.16,North,32767,-999.0,0.0,255,-99.99,,,0.00,Wunderground v.1.15,2014-12-20 12:43:00,
2014-12-20 04:48:00,-999.9,-99.9,30.16,North,32767,-999.0,0.0,255,-99.99,,,0.00,Wunderground v.1.15,2014-12-20 12:48:00,
2014-12-20 04:58:00,-999.9,-99.9,30.16,North,32767,-999.0,0.0,255,-99.99,,,0.00,Wunderground v.1.15,2014-12-20 12:58:00,
2014-12-20 05:08:00,-999.9,-99.9,30.16,North,32767,-999.0,0.0,255,-99.99,,,0.00,Wunderground v.1.15,2014-12-20 13:08:00,
2014-12-20 05:13:00,-999.9,-99.9,30.16,North,32767,-999.0,0.0,255,-99.99,,,0.00,Wunderground v.1.15,2014-12-20 13:13:00,
2014-12-20 05:23:00,-999.9,-99.9,30.17,North,32767,-999.0,0.0,255,-99.99,,,0.00,Wunderground v.1.15,2014-12-20 13:23:00,
2014-12-20 05:33:00,-999.9,-99.9,30.16,North,32767,-999.0,0.0,255,-99.99,,,0.00,Wunderground v.1.15,2014-12-20 13:33:00,
2014-12-20 05:38:00,-999.9,-99.9,30.17,North,32767,-999.0,0.0,255,-99.99,,,0.00,Wunderground v.1.15,2014-12-20 13:38:00,
2014-12-20 05:48:00,-999.9,-99.9,30.17,North,32767,-999.0,0.0,255,-99.99,,,0.00,Wunderground v.1.15,2014-12-20 13:48:00,
2014-12-20 05:58:00,-999.9,-99.9,30.16,North,32767,-999.0,0.0,255,-99.99,,,0.00,Wunderground v.1.15,2014-12-20 13:58:00,
2014-12-20 06:03:00,-999.9,-99.9,30.17,North,32767,-999.0,0.0,255,-99.99,,,0.00,Wunderground v.1.15,2014-12-20 14:03:00,
2014-12-20 06:14:00,-999.9,-99.9,30.18,North,32767,-999.0,0.0,255,-99.99,,,0.00,Wunderground v.1.15,2014-12-20 14:14:00,
2014-12-20 06:23:00,-999.9,-99.9,30.17,North,32767,-999.0,0.0,255,-99.99,,,0.00,Wunderground v.1.15,2014-12-20 14:23:00,
2014-12-20 06:29:00,-999.9,-99.9,30.17,North,32767,-999.0,0.0,255,-99.99,,,0.00,Wunderground v.1.15,2014-12-20 14:29:00,
2014-12-20 06:38:00,-999.9,-99.9,30.18,North,32767,-999.0,0.0,255,-99.99,,,0.00,Wunderground v.1.15,2014-12-20 14:38:00,
2014-12-20 06:48:00,-999.9,-99.9,30.19,North,32767,-999.0,0.0,255,-99.99,,,0.00,Wunderground v.1.15,2014-12-20 14:48:00,
2014-12-20 06:53:00,-999.9,-99.9,30.19,North,32767,-999.0,0.0,255,-99.99,,,0.00,Wunderground v.1.15,2014-12-20 14:53:00,
2014-12-20 07:04:00,-999.9,-99.9,30.19,North,32767,-999.0,0.0,255,-99.99,,,0.00,Wunderground v.1.15,2014-12-20 15:04:00,
2014-12-20 07:13:00,-999.9,-99.9,30.19,North,32767,-999.0,0.0,255,-99.99,,,0.00,Wunderground v.1.15,2014-12-20 15:13:00,
2014-12-20 07:18:00,-999.9,-99.9,30.18,North,32767,-999.0,0.0,255,-99.99,,,0.00,Wunderground v.1.15,2014-12-20 15:18:00,
2014-12-20 07:28:00,-999.9,-99.9,30.19,North,32767,-999.0,0.0,255,-99.99,,,0.00,Wunderground v.1.15,2014-12-20 15:28:00,
2014-12-20 07:38:00,-999.9,-99.9,30.19,North,32767,-999.0,0.0,255,-99.99,,,0.00,Wunderground v.1.15,2014-12-20 15:38:00,
2014-12-20 07:44:00,47.1,44.9,30.19,NE,36,6.0,6.0,92,0.00,,,0.00,Wunderground v.1.15,2014-12-20 15:44:00,
2014-12-20 07:53:00,47.8,45.6,30.19,North,6,5.0,5.0,92,0.00,,,0.00,Wunderground v.1.15,2014-12-20 15:53:00,
2014-12-20 07:58:00,47.9,45.7,30.19,NE,41,4.0,9.0,92,0.00,,,0.00,Wunderground v.1.15,2014-12-20 15:58:00,
2014-12-20 08:09:00,48.0,45.5,30.19,NE,39,4.0,9.0,91,0.00,,,0.00,Wunderground v.1.15,2014-12-20 16:09:00,
2014-12-20 08:18:00,48.3,45.8,30.20,NE,52,4.0,7.0,91,0.00,,,0.00,Wunderground v.1.15,2014-12-20 16:18:00,
2014-12-20 08:28:00,48.5,45.7,30.20,NE,41,5.0,7.0,90,0.00,,,0.00,Wunderground v.1.15,2014-12-20 16:28:00,
2014-12-20 08:38:00,48.6,45.8,30.20,NE,49,4.0,7.0,90,0.00,,,0.00,Wunderground v.1.15,2014-12-20 16:38:00,
2014-12-20 08:48:00,49.2,46.4,30.22,NNE,30,4.0,7.0,90,0.00,,,0.00,Wunderground v.1.15,2014-12-20 16:48:00,
2014-12-20 08:54:00,49.7,46.9,30.21,NE,46,4.0,4.0,90,0.00,,,0.00,Wunderground v.1.15,2014-12-20 16:54:00,
2014-12-20 09:03:00,50.8,47.1,30.20,NE,34,5.0,7.0,87,0.00,,,0.00,Wunderground v.1.15,2014-12-20 17:03:00,
2014-12-20 09:08:00,51.0,47.3,30.21,NNE,33,6.0,8.0,87,0.00,,,0.00,Wunderground v.1.15,2014-12-20 17:08:00,
2014-12-20 09:19:00,51.4,47.4,30.21,NNE,19,6.0,9.0,86,0.00,,,0.00,Wunderground v.1.15,2014-12-20 17:19:00,
2014-12-20 09:28:00,51.6,47.5,30.20,NE,36,5.0,6.0,86,0.00,,,0.00,Wunderground v.1.15,2014-12-20 17:28:00,
2014-12-20 09:38:00,52.3,47.9,30.20,NE,39,7.0,10.0,85,0.00,,,0.00,Wunderground v.1.15,2014-12-20 17:38:00,
2014-12-20 09:48:00,53.0,48.0,30.19,NE,39,6.0,11.0,83,0.00,,,0.00,Wunderground v.1.15,2014-12-20 17:48:00,
2014-12-20 09:58:00,53.7,48.7,30.20,ENE,60,5.0,8.0,83,0.00,,,0.00,Wunderground v.1.15,2014-12-20 17:58:00,
2014-12-20 10:08:00,54.4,49.0,30.20,ENE,59,5.0,7.0,82,0.00,,,0.00,Wunderground v.1.15,2014-12-20 18:08:00,
2014-12-20 10:19:00,54.8,49.1,30.20,NE,52,4.0,5.0,81,0.00,,,0.00,Wunderground v.1.15,2014-12-20 18:19:00,
2014-12-20 10:28:00,54.8,49.4,30.20,East,82,5.0,7.0,82,0.00,,,0.00,Wunderground v.1.15,2014-12-20 18:28:00,
2014-12-20 10:33:00,55.1,49.7,30.19,ENE,63,4.0,7.0,82,0.00,,,0.00,Wunderground v.1.15,2014-12-20 18:33:00,
2014-12-20 10:43:00,56.3,49.9,30.19,NE,45,4.0,6.0,79,0.00,,,0.00,Wunderground v.1.15,2014-12-20 18:43:00,
2014-12-20 10:48:00,57.3,50.5,30.19,NE,43,3.0,6.0,78,0.00,,,0.00,Wunderground v.1.15,2014-12-20 18:48:00,
2014-12-20 10:59:00,58.1,49.9,30.18,North,359,4.0,5.0,74,0.00,,,0.00,Wunderground v.1.15,2014-12-20 18:59:00,
2014-12-20 11:08:00,60.0,51.3,30.18,North,349,2.0,3.0,73,0.00,,,0.00,Wunderground v.1.15,2014-12-20 19:08:00,
2014-12-20 11:18:00,60.5,51.0,30.18,East,80,2.0,4.0,71,0.00,,,0.00,Wunderground v.1.15,2014-12-20 19:18:00,
2014-12-20 11:24:00,61.7,52.2,30.18,SW,228,1.0,1.0,71,0.00,,,0.00,Wunderground v.1.15,2014-12-20 19:24:00,
2014-12-20 11:33:00,62.8,52.1,30.17,ESE,120,1.0,2.0,68,0.00,,,0.00,Wunderground v.1.15,2014-12-20 19:33:00,
2014-12-20 11:38:00,62.8,52.1,30.17,SSE,161,2.0,3.0,68,0.00,,,0.00,Wunderground v.1.15,2014-12-20 19:38:00,
2014-12-20 11:48:00,63.3,52.2,30.16,SW,225,1.0,3.0,67,0.00,,,0.00,Wunderground v.1.15,2014-12-20 19:48:00,
2014-12-20 11:53:00,62.7,52.0,30.16,ESE,104,2.0,3.0,68,0.00,,,0.00,Wunderground v.1.15,2014-12-20 19:53:00,
2014-12-20 12:03:00,63.0,51.9,30.16,WSW,238,2.0,2.0,67,0.00,,,0.00,Wunderground v.1.15,2014-12-20 20:03:00,
2014-12-20 12:08:00,62.8,52.1,30.15,SW,219,2.0,4.0,68,0.00,,,0.00,Wunderground v.1.15,2014-12-20 20:08:00,
2014-12-20 12:19:00,63.8,52.2,30.14,West,259,2.0,3.0,66,0.00,,,0.00,Wunderground v.1.15,2014-12-20 20:19:00,
2014-12-20 12:28:00,64.7,52.7,30.13,SSW,211,1.0,3.0,65,0.00,,,0.00,Wunderground v.1.15,2014-12-20 20:28:00,
2014-12-20 12:38:00,66.2,52.3,30.13,WNW,293,1.0,3.0,61,0.00,,,0.00,Wunderground v.1.15,2014-12-20 20:38:00,
2014-12-20 12:48:00,66.1,52.7,30.12,SW,220,1.0,3.0,62,0.00,,,0.00,Wunderground v.1.15,2014-12-20 20:48:00,
2014-12-20 12:58:00,65.8,52.0,30.12,WSW,253,2.0,4.0,61,0.00,,,0.00,Wunderground v.1.15,2014-12-20 20:58:00,
2014-12-20 13:08:00,65.5,53.0,30.11,WSW,253,3.0,5.0,64,0.00,,,0.00,Wunderground v.1.15,2014-12-20 21:08:00,
2014-12-20 13:18:00,65.2,53.1,30.11,WSW,242,5.0,6.0,65,0.00,,,0.00,Wunderground v.1.15,2014-12-20 21:18:00,
2014-12-20 13:23:00,65.1,53.0,30.11,WSW,238,5.0,9.0,65,0.00,,,0.00,Wunderground v.1.15,2014-12-20 21:23:00,
2014-12-20 13:33:00,65.0,53.4,30.10,SW,224,4.0,4.0,66,0.00,,,0.00,Wunderground v.1.15,2014-12-20 21:33:00,
2014-12-20 13:38:00,65.2,53.1,30.10,SSW,205,4.0,8.0,65,0.00,,,0.00,Wunderground v.1.15,2014-12-20 21:38:00,
2014-12-20 13:48:00,65.2,53.1,30.10,SW,217,4.0,6.0,65,0.00,,,0.00,Wunderground v.1.15,2014-12-20 21:48:00,
2014-12-20 13:53:00,65.0,52.9,30.10,WSW,240,4.0,6.0,65,0.00,,,0.00,Wunderground v.1.15,2014-12-20 21:53:00,
2014-12-20 14:03:00,64.3,53.5,30.09,SW,215,4.0,6.0,68,0.00,,,0.00,Wunderground v.1.15,2014-12-20 22:03:00,
2014-12-20 14:08:00,64.2,53.4,30.09,West,270,4.0,7.0,68,0.00,,,0.00,Wunderground v.1.15,2014-12-20 22:08:00,
2014-12-20 14:18:00,64.0,54.4,30.09,West,262,4.0,7.0,71,0.00,,,0.00,Wunderground v.1.15,2014-12-20 22:18:00,
2014-12-20 14:23:00,63.9,55.1,30.09,WSW,246,4.0,6.0,73,0.00,,,0.00,Wunderground v.1.15,2014-12-20 22:23:00,
2014-12-20 14:34:00,63.5,55.8,30.10,WSW,257,5.0,8.0,76,0.00,,,0.00,Wunderground v.1.15,2014-12-20 22:34:00,
2014-12-20 14:43:00,63.4,55.7,30.09,SW,217,4.0,6.0,76,0.00,,,0.00,Wunderground v.1.15,2014-12-20 22:43:00,
2014-12-20 14:48:00,63.3,55.6,30.09,West,280,4.0,9.0,76,0.00,,,0.00,Wunderground v.1.15,2014-12-20 22:48:00,
2014-12-20 14:58:00,63.1,55.8,30.10,WSW,255,4.0,9.0,77,0.00,,,0.00,Wunderground v.1.15,2014-12-20 22:58:00,
2014-12-20 15:08:00,63.3,56.0,30.10,West,270,3.0,6.0,77,0.00,,,0.00,Wunderground v.1.15,2014-12-20 23:08:00,
2014-12-20 15:18:00,63.2,56.2,30.09,SW,221,3.0,6.0,78,0.00,,,0.00,Wunderground v.1.15,2014-12-20 23:18:00,
2014-12-20 15:28:00,63.6,56.3,30.09,West,267,2.0,5.0,77,0.00,,,0.00,Wunderground v.1.15,2014-12-20 23:28:00,
2014-12-20 15:39:00,64.0,56.3,30.09,WNW,284,2.0,4.0,76,0.00,,,0.00,Wunderground v.1.15,2014-12-20 23:39:00,
2014-12-20 15:48:00,63.8,56.4,30.10,WNW,299,3.0,5.0,77,0.00,,,0.00,Wunderground v.1.15,2014-12-20 23:48:00,
2014-12-20 15:54:00,63.6,56.3,30.10,West,264,3.0,5.0,77,0.00,,,0.00,Wunderground v.1.15,2014-12-20 23:54:00,
2014-12-20 15:59:00,63.3,56.3,30.11,West,276,3.0,5.0,78,0.00,,,0.00,Wunderground v.1.15,2014-12-20 23:59:00,
2014-12-20 16:08:00,62.7,56.1,30.11,West,270,3.0,5.0,79,0.00,,,0.00,Wunderground v.1.15,2014-12-21 00:08:00,
2014-12-20 16:18:00,62.3,56.0,30.10,WSW,253,2.0,5.0,80,0.00,,,0.00,Wunderground v.1.15,2014-12-21 00:18:00,
2014-12-20 16:28:00,61.8,55.9,30.11,West,280,3.0,5.0,81,0.00,,,0.00,Wunderground v.1.15,2014-12-21 00:28:00,
2014-12-20 16:38:00,61.7,56.1,30.11,West,269,2.0,3.0,82,0.00,,,0.00,Wunderground v.1.15,2014-12-21 00:38:00,
2014-12-20 16:48:00,60.9,55.4,30.10,WSW,246,2.0,4.0,82,0.00,,,0.00,Wunderground v.1.15,2014-12-21 00:48:00,
2014-12-20 16:58:00,60.5,55.6,30.10,WSW,243,1.0,2.0,84,0.00,,,0.00,Wunderground v.1.15,2014-12-21 00:58:00,
2014-12-20 17:03:00,60.0,54.8,30.10,ESE,114,1.0,3.0,83,0.00,,,0.00,Wunderground v.1.15,2014-12-21 01:03:00,
2014-12-20 17:08:00,59.2,55.0,30.09,East,93,2.0,3.0,86,0.00,,,0.00,Wunderground v.1.15,2014-12-21 01:08:00,
2014-12-20 17:18:00,59.1,55.2,30.10,ENE,64,2.0,3.0,87,0.00,,,0.00,Wunderground v.1.15,2014-12-21 01:18:00,
2014-12-20 17:28:00,58.7,55.2,30.10,West,276,2.0,6.0,88,0.00,,,0.00,Wunderground v.1.15,2014-12-21 01:28:00,
2014-12-20 17:38:00,57.6,53.8,30.11,ESE,114,1.0,6.0,87,0.00,,,0.00,Wunderground v.1.15,2014-12-21 01:38:00,
2014-12-20 17:53:00,57.1,53.9,30.11,ESE,110,1.0,2.0,89,0.00,,,0.00,Wunderground v.1.15,2014-12-21 01:53:00,
2014-12-20 17:58:00,56.6,53.4,30.11,ESE,110,1.0,4.0,89,0.00,,,0.00,Wunderground v.1.15,2014-12-21 01:58:00,
2014-12-20 18:08:00,56.1,53.5,30.11,NE,43,1.0,4.0,91,0.00,,,0.00,Wunderground v.1.15,2014-12-21 02:08:00,
2014-12-20 18:13:00,56.2,53.6,30.11,NE,43,2.0,2.0,91,0.00,,,0.00,Wunderground v.1.15,2014-12-21 02:13:00,
2014-12-20 18:23:00,56.7,54.4,30.12,NE,49,3.0,3.0,92,0.00,,,0.00,Wunderground v.1.15,2014-12-21 02:23:00,
2014-12-20 18:28:00,56.6,53.7,30.12,NE,49,1.0,4.0,90,0.00,,,0.00,Wunderground v.1.15,2014-12-21 02:28:00,
2014-12-20 18:38:00,56.0,53.4,30.12,ENE,64,1.0,4.0,91,0.00,,,0.00,Wunderground v.1.15,2014-12-21 02:38:00,
2014-12-20 18:48:00,55.2,52.9,30.11,NE,55,3.0,6.0,92,0.00,,,0.00,Wunderground v.1.15,2014-12-21 02:48:00,
2014-12-20 18:58:00,55.4,53.4,30.12,NE,49,3.0,6.0,93,0.00,,,0.00,Wunderground v.1.15,2014-12-21 02:58:00,
2014-12-20 19:08:00,56.4,54.4,30.12,NE,43,3.0,8.0,93,0.00,,,0.00,Wunderground v.1.15,2014-12-21 03:08:00,
2014-12-20 19:18:00,55.9,53.3,30.12,SSE,161,1.0,4.0,91,0.00,,,0.00,Wunderground v.1.15,2014-12-21 03:18:00,
2014-12-20 19:28:00,55.7,53.7,30.13,NNW,339,1.0,4.0,93,0.00,,,0.00,Wunderground v.1.15,2014-12-21 03:28:00,
2014-12-20 19:38:00,56.1,53.8,30.13,SE,138,3.0,3.0,92,0.00,,,0.00,Wunderground v.1.15,2014-12-21 03:38:00,
2014-12-20 19:43:00,55.4,52.8,30.14,SW,222,2.0,5.0,91,0.00,,,0.00,Wunderground v.1.15,2014-12-21 03:43:00,
2014-12-20 19:49:00,55.1,52.8,30.14,SW,235,1.0,5.0,92,0.00,,,0.00,Wunderground v.1.15,2014-12-21 03:49:00,
2014-12-20 19:58:00,55.3,53.3,30.14,SW,235,0.0,1.0,93,0.00,,,0.00,Wunderground v.1.15,2014-12-21 03:58:00,
2014-12-20 20:03:00,54.8,52.5,30.14,SE,133,1.0,1.0,92,0.00,,,0.00,Wunderground v.1.15,2014-12-21 04:03:00,
2014-12-20 20:13:00,54.1,52.1,30.14,SE,133,0.0,3.0,93,0.00,,,0.00,Wunderground v.1.15,2014-12-21 04:13:00,
2014-12-20 20:18:00,53.8,51.8,30.14,SE,132,1.0,3.0,93,0.00,,,0.00,Wunderground v.1.15,2014-12-21 04:18:00,
2014-12-20 20:28:00,54.4,52.7,30.13,SE,132,1.0,1.0,94,0.00,,,0.00,Wunderground v.1.15,2014-12-21 04:28:00,